weather.gov     
National Weather Service

Regional Weather Roundup
NWS Homepage
This page is being discontinued on March 12, 2014.
The same data is available at this site. Please update your bookmarks.
Thank you, and we apologize for the inconvenience.
Please send an email to SR-SRH.Webmaster@noaa.gov with any concerns.


Current Version
Previous Version:    01  02  03  04  05  06  07  08  09  10  11  12  13  14  15  16  17  18  19  20  21  22  23  24  25  26  27  28  29  30  
   31  32  33  34  35  36  37  38  39  40  41  42  43  44  45  46  47  48  49  50  51  52  53  54  55  56  57  
[Printable]
796
ASUS41 KGYX 020810
RWRGYX
WEATHER ROUNDUP FOR MAINE AND NEW HAMPSHIRE
NATIONAL WEATHER SERVICE GRAY ME
400 AM EDT THU OCT 02 2014

MEZ002-005-006-010-012-015-018-020-021-024-026-027-029-020900-
MAINE

CITY           SKY/WX    TMP DP  RH WIND       PRES   REMARKS
PORTLAND       CLOUDY    55  50  83 N12       30.17R
SANFORD        CLOUDY    54  48  82 N9        30.17R
BAR HARBOR     CLOUDY    52  52 100 N10       30.19R
WISCASSET      CLOUDY    55  49  80 VRB3      30.19R
ROCKLAND       CLOUDY    54  48  82 NE9G18    30.17R
FRYEBURG       CLOUDY    54  49  83 CALM      30.18S
LEWISTONAUBURN CLOUDY    54  48  82 N7        30.18R
AUGUSTA        CLOUDY    52  48  86 NE10      30.19R
WATERVILLE     CLOUDY    52  45  76 NE7       30.14S
BANGOR         CLOUDY    51  47  86 NE6       30.20S FOG
GREENVILLE       N/A     47  43  86 NE6       30.17F
MILLINOCKET    CLEAR     47  43  86 NE6       30.23F
HOULTON        CLOUDY    33  33 100 CALM      30.23S FOG
PRESQUE ISLE   CLOUDY    36  32  87 CALM      30.25S VSB<1/4
FRENCHVILLE    FOG       38  37  97 E5        30.25R VSB 3/4
CARIBOU        CLEAR     36  35  96 N7        30.24S
$$

NHZ002-005-008-009-011-012-014-020900-
NEW HAMPSHIRE

CITY           SKY/WX    TMP DP  RH WIND       PRES   REMARKS
PORTSMOUTH     LGT RAIN  55  53  92 N10       30.14R FOG
ROCHESTER      CLOUDY    55  52  89 NE3       30.16R
NASHUA         LGT RAIN  55  55 100 NE3       30.15R FOG
MANCHESTER     LGT RAIN  55  52  89 NE8       30.13S FOG
CONCORD        LGT RAIN  55  53  93 CALM      30.16R
LACONIA        CLOUDY    55  48  76 E13       30.15R
PLYMOUTH       CLOUDY    55  55  97 CALM      30.14S
BERLIN         CLOUDY    54  51  90 CALM      30.16F
WHITEFIELD     CLOUDY    55  50  83 E7        30.14S
JAFFREY        LGT RAIN  53  52  96 CALM      30.14S
LEBANON        CLOUDY    57  53  86 CALM      30.14R
MT WASHINGTON  MOCLDY    45  36  70 E12         N/A
$$

VTZ005-007-008-020900-
VERMONT

CITY           SKY/WX    TMP DP  RH WIND       PRES   REMARKS
ST JOHNSBURY     N/A     48  47  96 MISG      30.14S
MONTPELIER     CLOUDY    53  52  96 CALM      30.18R
BURLINGTON     CLOUDY    56  53  90 N5        30.14S FOG
$$

MAZ007-012-024-CTZ003-RIZ002-NYZ038-NYZ072-020900-
SOUTHERN NEW ENGLAND AND NY

CITY           SKY/WX    TMP DP  RH WIND       PRES   REMARKS
BOSTON         LGT RAIN  55  54  96 NE20      30.11S
WORCESTER      LGT RAIN  53  52  96 NE10      30.11S
NANTUCKET      CLOUDY    61  59  93 NE18G24   29.98S
PROVIDENCE     LGT RAIN  57  56  96 N15       30.08R
HARTFORD       CLOUDY    58  55  90 N8        30.09F
ALBANY         CLOUDY    59  56  89 NE3       30.13R
NEW YORK CITY  CLOUDY    61  55  81 N8        30.08S
$$

ANZ081-ANZ082-ANZ150-NHZ014-MEZ023>029-020900-
COASTAL MARINE OBSERVATIONS

STATION/POSITION TIME  TEMP    WIND        PRES    WAVE
                       AIR SEA DIR/SP/G            HT/PER
                 (UTC) (F)     (DEG/KT/KT) (MB)    (FT/S)
MATINICUS ROCK   0800           50/ 23/ 26 1020.3R
PORTLAND WX BUOY 0750   56 56   40/ 16/ 17 1020.9R   5/ 7
WELLS            0700   56 57   20/  7/ 10 1019.8R
ISLE OF SHOALS   0800   56      50/ 20/ 24 1019.6R
JEFFREYS LEDGE   0721      57                N/A     9/ 8
CASHES LEDGE BUO 0750   56 58              1018.6R   8/ 7
$$

.............KEY..............
   WCI - WIND CHILL
   TC  - TEMPERATURE IN CELSIUS
   VSB - VISIBILITY IN MILES
   HX  - HEAT INDEX
   FAIR- INDICATES FEW OR NO CLOUDS BELOW 12,000 FT, WITH NO
         SIGNIFICANT WEATHER AND/OR OBSTRUCTIONS TO VISIBILITY.






U.S. Dept. of Commerce
NOAA National Weather Service
1325 East West Highway
Silver Spring, MD 20910
E-mail: w-nws.webmaster@noaa.gov
Page last modified: May 16, 2007
NATIONAL WEATHER SERVICE: for Safety, for Work, for Fun - FOR LIFE